sat.trackr.live / text

‹ back to catalog

STARLINK-5395

NORAD 54831 · 2022-177M

PAYLOAD ACTIVE UNKNOWN

§ Identity

Operator
Country
US
Launch date
2022-12-28
Launch site
AFETR
Launch vehicle
Mass (kg)
RCS (m²)

Purposes: comms

External: N2YO · Heavens-Above · Gunter

§ Orbital elements

Epoch: 2026-09-19T22:52:32.407104Z

Period
94.27 min
Inclination
43.0022°
Eccentricity
0.0001424
Mean motion
15.27574969 rev/d
Perigee alt
482.1 km
Apogee alt
484.0 km
Semi-major
6,861.2 km
B*
2.4182e-5
RAAN
118.9411°
Arg perigee
252.7889°
Mean anomaly
107.2807°
Rev number
20,663

§ Raw data

STARLINK-53951 54831U 22177M   26262.95315286  .00000403  00000+0  24182-4 0  99942 54831  43.0022 118.9411 0001424 252.7889 107.2807 15.27574969206638

JSON: /api/v1/satellites/54831 · /tle

For live sub-satellite position, see the globe view (requires WebGL).

§ Visibility from observer

Set your observer location to see the next 7 days of passes ≥ 10°. The values pass through the URL so the page stays shareable.

No JS? Fill the form by hand. The geolocation button needs JavaScript.